Location: Bergnerzell
(49.1816°N, 10.2565°E)
Time: 13:19:51
(UTC+00:00)

USA 267 - Pass Details

Date: 23 May 2024
Orbit: 1101 x 1107 km, 123.0° (Epoch: 29 April)

Event Time Altitude Azimuth Distance (km) Brightness Sun altitude
Rises 00:02:40 0° 56° (ENE) 3,924 6.9 -19.4°
Reaches altitude 10° 00:05:08 10° 56° (NE) 2,965 6.2 -19.3°
Maximum altitude 00:11:42 82° 331° (NNW) 1,117 3.3 -19.1°
Enters shadow 00:17:32 14° 244° (WSW) 2,689 4.9 -18.8°
